AVA105 SULS-SKBO

Flight info

Callsign AVA105
Flight time N/A
Altitude 34000
Route LDS UM424 CRR UP526 LOLIL/N0458F360 UP526 GEMSU UZ120 SIS UM784 PAPEK/N0457F380 UM784 VUMPU UN420 ROLUS/N0455F390 UL300 POVSO
Aircraft A320/M-SDE3FGHIRWY/LB1

Departure

Time 2026-05-05 20:49
Airport Capitan Corbeta CA Curbelo International Airport (SULS)

Arrival

Time N/A
Airport El Dorado International Airport (SKBO)
Time Latitude Longitude Altitude Speed Heading
2026-05-05 20:23 -34.85966 -55.09895 101 ft 0 kts 161°
2026-05-05 20:44 -34.85967 -55.09895 100 ft 2 kts 161°
2026-05-05 20:45 -34.85914 -55.09814 100 ft 17 kts 343°
2026-05-05 20:45 -34.85796 -55.09859 100 ft 21 kts 342°
2026-05-05 20:45 -34.85658 -55.09925 102 ft 17 kts 316°
2026-05-05 20:46 -34.85656 -55.10021 100 ft 14 kts 243°
2026-05-05 20:46 -34.85710 -55.10179 100 ft 26 kts 250°
2026-05-05 20:46 -34.85783 -55.10423 101 ft 25 kts 250°
2026-05-05 20:46 -34.85841 -55.10638 100 ft 28 kts 253°
2026-05-05 20:47 -34.85904 -55.10886 100 ft 29 kts 252°
2026-05-05 20:47 -34.85963 -55.11107 100 ft 26 kts 249°
2026-05-05 20:47 -34.85999 -55.11196 100 ft 12 kts 340°
2026-05-05 20:47 -34.85972 -55.11140 99 ft 4 kts 74°
2026-05-05 20:48 -34.85957 -55.11079 101 ft 34 kts 73°
2026-05-05 20:48 -34.85802 -55.10497 100 ft 106 kts 72°
2026-05-05 20:49 -34.85513 -55.09430 141 ft 155 kts 72°
2026-05-05 20:49 -34.85174 -55.08161 743 ft 159 kts 73°
2026-05-05 20:49 -34.84846 -55.06892 1389 ft 162 kts 71°
2026-05-05 20:49 -34.84487 -55.05497 1678 ft 183 kts 71°
2026-05-05 20:50 -34.84575 -55.03875 1871 ft 212 kts 116°
2026-05-05 20:50 -34.85670 -55.02572 2229 ft 235 kts 156°
2026-05-05 20:50 -34.87318 -55.02310 2703 ft 249 kts 194°
2026-05-05 20:50 -34.88842 -55.03301 3273 ft 254 kts 231°
2026-05-05 20:51 -34.89596 -55.05201 3934 ft 254 kts 267°
2026-05-05 20:51 -34.89206 -55.07264 4684 ft 257 kts 302°
2026-05-05 20:51 -34.87950 -55.08824 5537 ft 259 kts 319°
2026-05-05 20:51 -34.86461 -55.10101 6368 ft 261 kts 315°
2026-05-05 20:52 -34.85415 -55.11822 7207 ft 252 kts 286°
2026-05-05 20:52 -34.85137 -55.13913 8035 ft 251 kts 272°
2026-05-05 20:52 -34.85166 -55.16049 8854 ft 254 kts 268°
2026-05-05 20:52 -34.85053 -55.18194 9622 ft 256 kts 285°
2026-05-05 20:53 -34.84275 -55.20161 10282 ft 264 kts 298°
2026-05-05 20:53 -34.83289 -55.22164 10473 ft 287 kts 298°
2026-05-05 20:53 -34.82212 -55.24321 10710 ft 306 kts 299°
2026-05-05 20:53 -34.81095 -55.26551 11342 ft 311 kts 299°
2026-05-05 20:54 -34.79958 -55.28817 11973 ft 316 kts 299°
2026-05-05 20:54 -34.78805 -55.31117 12585 ft 321 kts 299°
2026-05-05 20:54 -34.77635 -55.33456 13177 ft 326 kts 298°
2026-05-05 20:54 -34.76465 -55.35799 13785 ft 330 kts 298°
2026-05-05 20:55 -34.75265 -55.38202 14357 ft 334 kts 298°
2026-05-05 20:55 -34.74043 -55.40658 14961 ft 336 kts 298°
2026-05-05 20:55 -34.72846 -55.43060 15564 ft 338 kts 298°
2026-05-05 20:55 -34.71647 -55.45462 16187 ft 340 kts 298°
2026-05-05 20:56 -34.70418 -55.47917 16809 ft 341 kts 298°
2026-05-05 20:56 -34.69179 -55.50383 17422 ft 343 kts 298°
2026-05-05 20:56 -34.67934 -55.52859 17986 ft 345 kts 298°
2026-05-05 20:56 -34.66677 -55.55358 18543 ft 347 kts 298°
2026-05-05 20:57 -34.65418 -55.57864 19052 ft 349 kts 298°
2026-05-05 20:57 -34.64152 -55.60386 19546 ft 351 kts 298°
2026-05-05 20:57 -34.62877 -55.62921 20026 ft 353 kts 298°
2026-05-05 20:57 -34.61590 -55.65476 20497 ft 356 kts 298°
2026-05-05 20:58 -34.60295 -55.68051 20969 ft 358 kts 298°
2026-05-05 20:58 -34.58995 -55.70638 21430 ft 361 kts 298°
2026-05-05 20:58 -34.57680 -55.73249 21884 ft 363 kts 298°
2026-05-05 20:58 -34.56358 -55.75866 22327 ft 366 kts 298°
2026-05-05 20:59 -34.55021 -55.78504 22766 ft 368 kts 298°
2026-05-05 20:59 -34.53679 -55.81156 23194 ft 370 kts 298°
2026-05-05 20:59 -34.52327 -55.83830 23605 ft 373 kts 298°
2026-05-05 20:59 -34.50968 -55.86516 23957 ft 375 kts 298°
2026-05-05 21:00 -34.49601 -55.89221 24325 ft 377 kts 298°
2026-05-05 21:00 -34.48227 -55.91937 24705 ft 378 kts 298°
2026-05-05 21:00 -34.46847 -55.94659 25072 ft 380 kts 298°
2026-05-05 21:00 -34.45462 -55.97384 25441 ft 381 kts 298°
2026-05-05 21:01 -34.44068 -56.00120 25786 ft 382 kts 298°
2026-05-05 21:01 -34.42669 -56.02868 26111 ft 384 kts 298°
2026-05-05 21:01 -34.41269 -56.05615 26510 ft 384 kts 298°
2026-05-05 21:01 -34.39866 -56.08367 26882 ft 384 kts 298°
2026-05-05 21:02 -34.38460 -56.11130 27230 ft 386 kts 298°
2026-05-05 21:02 -34.37014 -56.13876 27562 ft 389 kts 303°
2026-05-05 21:02 -34.35184 -56.16322 27889 ft 397 kts 314°
2026-05-05 21:02 -34.32948 -56.18261 28205 ft 407 kts 325°
2026-05-05 21:03 -34.30314 -56.19622 28510 ft 419 kts 336°
2026-05-05 21:03 -34.27482 -56.20541 28811 ft 423 kts 338°
2026-05-05 21:03 -34.24633 -56.21443 29089 ft 424 kts 338°
2026-05-05 21:03 -34.21773 -56.22347 29376 ft 426 kts 338°
2026-05-05 21:04 -34.18899 -56.23257 29659 ft 427 kts 338°
2026-05-05 21:04 -34.16020 -56.24171 29937 ft 429 kts 338°
2026-05-05 21:04 -34.13122 -56.25093 30185 ft 431 kts 337°
2026-05-05 21:04 -34.10227 -56.26021 30407 ft 432 kts 337°
2026-05-05 21:05 -34.07315 -56.26956 30605 ft 434 kts 337°
2026-05-05 21:05 -34.04390 -56.27890 30824 ft 435 kts 337°
2026-05-05 21:05 -34.01459 -56.28823 31047 ft 437 kts 337°
2026-05-05 21:05 -33.98525 -56.29755 31332 ft 436 kts 337°
2026-05-05 21:06 -33.95595 -56.30683 31653 ft 435 kts 337°
2026-05-05 21:06 -33.92668 -56.31609 31946 ft 434 kts 337°
2026-05-05 21:06 -33.89750 -56.32532 32241 ft 434 kts 337°
2026-05-05 21:06 -33.86832 -56.33456 32528 ft 433 kts 337°
2026-05-05 21:07 -33.83922 -56.34380 32822 ft 432 kts 337°
2026-05-05 21:07 -33.81018 -56.35303 33107 ft 432 kts 337°
2026-05-05 21:07 -33.78113 -56.36224 33394 ft 431 kts 337°
2026-05-05 21:07 -33.75211 -56.37143 33689 ft 431 kts 337°
2026-05-05 21:08 -33.72315 -56.38058 33981 ft 430 kts 337°
2026-05-05 21:08 -33.69425 -56.38970 34230 ft 429 kts 337°
2026-05-05 21:08 -33.66537 -56.39883 34467 ft 428 kts 337°
2026-05-05 21:08 -33.63664 -56.40788 34777 ft 426 kts 337°
2026-05-05 21:09 -33.60840 -56.41676 35044 ft 425 kts 337°
2026-05-05 21:09 -33.57983 -56.42576 35265 ft 424 kts 337°
2026-05-05 21:09 -33.55135 -56.43473 35479 ft 424 kts 337°
2026-05-05 21:09 -33.52283 -56.44370 35682 ft 423 kts 337°
2026-05-05 21:10 -33.49434 -56.45268 35880 ft 423 kts 337°
2026-05-05 21:10 -33.46588 -56.46168 35934 ft 423 kts 337°
2026-05-05 21:10 -33.40912 -56.47951 35975 ft 421 kts 337°
2026-05-05 21:11 -33.35258 -56.49722 35975 ft 420 kts 336°
2026-05-05 21:11 -33.29690 -56.51728 35975 ft 417 kts 334°
2026-05-05 21:12 -33.24185 -56.53914 35979 ft 418 kts 334°
2026-05-05 21:12 -33.18641 -56.56095 35987 ft 421 kts 335°
2026-05-05 21:13 -33.13060 -56.58225 35998 ft 421 kts 335°
2026-05-05 21:13 -33.07508 -56.60327 36004 ft 421 kts 335°
2026-05-05 21:14 -33.01917 -56.62449 35982 ft 422 kts 335°
2026-05-05 21:14 -32.96307 -56.64590 35985 ft 424 kts 335°
2026-05-05 21:15 -32.90682 -56.66734 35992 ft 425 kts 335°
2026-05-05 21:15 -32.85040 -56.68870 35967 ft 426 kts 335°
2026-05-05 21:16 -32.79385 -56.71010 35973 ft 427 kts 335°
2026-05-05 21:16 -32.73717 -56.73157 35980 ft 428 kts 335°
2026-05-05 21:17 -32.68035 -56.75302 35987 ft 429 kts 335°
2026-05-05 21:17 -32.62344 -56.77445 35977 ft 429 kts 334°
2026-05-05 21:18 -32.56642 -56.79596 35982 ft 430 kts 334°
2026-05-05 21:18 -32.50932 -56.81740 35984 ft 431 kts 334°
2026-05-05 21:19 -32.45250 -56.83869 35975 ft 431 kts 334°
2026-05-05 21:19 -32.39522 -56.86010 35998 ft 431 kts 334°
2026-05-05 21:20 -32.33805 -56.88147 36004 ft 431 kts 334°
2026-05-05 21:20 -32.28104 -56.90290 36008 ft 430 kts 334°
2026-05-05 21:21 -32.22388 -56.92424 35979 ft 431 kts 335°
2026-05-05 21:21 -32.16666 -56.94556 35982 ft 432 kts 335°
2026-05-05 21:22 -32.10925 -56.96690 35985 ft 433 kts 335°
2026-05-05 21:22 -32.05182 -56.98824 35992 ft 433 kts 335°
2026-05-05 21:23 -31.99435 -57.00960 35976 ft 433 kts 335°
2026-05-05 21:23 -31.93696 -57.03090 35984 ft 433 kts 335°
2026-05-05 21:24 -31.87946 -57.05212 35986 ft 432 kts 335°
2026-05-05 21:24 -31.82218 -57.07364 35992 ft 432 kts 334°
2026-05-05 21:25 -31.76502 -57.09539 35992 ft 432 kts 334°
2026-05-05 21:25 -31.70763 -57.11669 35997 ft 433 kts 334°
2026-05-05 21:26 -31.64998 -57.13778 35977 ft 435 kts 334°
2026-05-05 21:26 -31.59251 -57.15879 35951 ft 436 kts 334°
2026-05-05 21:27 -31.53441 -57.17997 35954 ft 438 kts 334°
2026-05-05 21:27 -31.47627 -57.20126 35960 ft 438 kts 334°
2026-05-05 21:28 -31.41802 -57.22258 35951 ft 439 kts 334°
2026-05-05 21:28 -31.35981 -57.24393 35965 ft 439 kts 334°
2026-05-05 21:29 -31.30131 -57.26521 35968 ft 439 kts 334°
2026-05-05 21:29 -31.24293 -57.28643 35964 ft 439 kts 334°
2026-05-05 21:30 -31.19435 -57.30408 35951 ft 439 kts 333°
2026-05-05 21:30 -31.13598 -57.32535 35956 ft 440 kts 333°
2026-05-05 21:31 -31.07756 -57.34663 35958 ft 440 kts 333°
2026-05-05 21:31 -31.01907 -57.36775 35954 ft 440 kts 333°
2026-05-05 21:32 -30.96055 -57.38886 35941 ft 440 kts 332°
2026-05-05 21:32 -30.90215 -57.41000 35954 ft 439 kts 332°
2026-05-05 21:33 -30.84378 -57.43108 35960 ft 439 kts 332°
2026-05-05 21:33 -30.78550 -57.45209 35964 ft 439 kts 332°
2026-05-05 21:34 -30.72758 -57.47297 35951 ft 438 kts 332°
2026-05-05 21:34 -30.66934 -57.49398 35945 ft 439 kts 332°
2026-05-05 21:35 -30.61104 -57.51497 35950 ft 439 kts 332°
2026-05-05 21:35 -30.55268 -57.53588 35922 ft 439 kts 332°
2026-05-05 21:36 -30.49430 -57.55683 35926 ft 439 kts 332°
2026-05-05 21:36 -30.43594 -57.57772 35943 ft 439 kts 332°
2026-05-05 21:37 -30.37750 -57.59861 35940 ft 439 kts 332°
2026-05-05 21:37 -30.31912 -57.61948 35924 ft 439 kts 331°
2026-05-05 21:38 -30.26110 -57.64116 35943 ft 431 kts 325°
2026-05-05 21:38 -30.20673 -57.66942 35951 ft 428 kts 324°
2026-05-05 21:39 -30.15240 -57.69756 35952 ft 428 kts 324°
2026-05-05 21:39 -30.09806 -57.72562 35936 ft 428 kts 324°
2026-05-05 21:40 -30.04374 -57.75370 35945 ft 427 kts 324°
2026-05-05 21:40 -29.98984 -57.78159 35952 ft 427 kts 324°
2026-05-05 21:41 -29.93556 -57.80949 35957 ft 427 kts 324°
2026-05-05 21:41 -29.88123 -57.83738 35945 ft 427 kts 324°
2026-05-05 21:42 -29.82698 -57.86531 35949 ft 427 kts 324°
2026-05-05 21:42 -29.77274 -57.89320 35954 ft 427 kts 324°
2026-05-05 21:43 -29.71856 -57.92104 35961 ft 427 kts 324°
2026-05-05 21:43 -29.66433 -57.94889 35967 ft 426 kts 324°
2026-05-05 21:44 -29.61011 -57.97662 35967 ft 426 kts 324°
2026-05-05 21:44 -29.55626 -58.00477 35967 ft 425 kts 323°
2026-05-05 21:45 -29.50272 -58.03331 35970 ft 424 kts 323°
2026-05-05 21:45 -29.44920 -58.06178 35956 ft 424 kts 323°
2026-05-05 21:46 -29.39549 -58.09000 35961 ft 425 kts 323°
2026-05-05 21:46 -29.34133 -58.11757 35964 ft 426 kts 324°
2026-05-05 21:47 -29.28702 -58.14492 35968 ft 426 kts 324°
2026-05-05 21:47 -29.23315 -58.17214 35948 ft 426 kts 324°
2026-05-05 21:48 -29.17853 -58.19980 35953 ft 426 kts 324°
2026-05-05 21:48 -29.12465 -58.22706 35966 ft 426 kts 324°
2026-05-05 21:49 -29.07045 -58.25446 35971 ft 426 kts 324°
2026-05-05 21:49 -29.01630 -58.28178 35950 ft 425 kts 324°
2026-05-05 21:50 -28.96214 -58.30905 35958 ft 425 kts 324°
2026-05-05 21:50 -28.90802 -58.33637 35960 ft 425 kts 324°
2026-05-05 21:51 -28.85391 -58.36364 35959 ft 425 kts 324°
2026-05-05 21:51 -28.79978 -58.39084 35934 ft 425 kts 325°
2026-05-05 21:52 -28.71839 -58.43161 35938 ft 426 kts 325°
2026-05-05 21:53 -28.66410 -58.45881 35939 ft 426 kts 325°
2026-05-05 21:53 -28.61015 -58.48579 35931 ft 427 kts 325°
2026-05-05 21:54 -28.55577 -58.51285 35938 ft 426 kts 325°
2026-05-05 21:54 -28.50139 -58.53987 35949 ft 427 kts 325°
2026-05-05 21:55 -28.44697 -58.56681 35946 ft 427 kts 325°
2026-05-05 21:55 -28.39253 -58.59370 35930 ft 427 kts 325°
2026-05-05 21:56 -28.33807 -58.62063 35929 ft 427 kts 326°
2026-05-05 21:56 -28.28355 -58.64751 35927 ft 427 kts 326°
2026-05-05 21:57 -28.22907 -58.67439 35931 ft 427 kts 326°
2026-05-05 21:57 -28.17447 -58.70126 35930 ft 428 kts 326°
2026-05-05 21:58 -28.11983 -58.72815 35914 ft 428 kts 326°
2026-05-05 21:58 -28.06518 -58.75511 35914 ft 429 kts 326°
2026-05-05 21:59 -28.01085 -58.78190 35919 ft 429 kts 326°
2026-05-05 21:59 -27.95606 -58.80880 35924 ft 430 kts 326°
2026-05-05 22:00 -27.90113 -58.83565 35909 ft 430 kts 326°
2026-05-05 22:00 -27.84616 -58.86255 35915 ft 431 kts 326°
2026-05-05 22:01 -27.79120 -58.88953 35921 ft 431 kts 326°
2026-05-05 22:01 -27.73613 -58.91640 35924 ft 431 kts 326°
2026-05-05 22:02 -27.68098 -58.94323 35902 ft 432 kts 326°
2026-05-05 22:02 -27.62580 -58.97012 35903 ft 432 kts 326°
2026-05-05 22:03 -27.57059 -58.99706 35906 ft 433 kts 326°
2026-05-05 22:03 -27.51532 -59.02391 35905 ft 433 kts 326°
2026-05-05 22:04 -27.46003 -59.05076 35930 ft 432 kts 325°
2026-05-05 22:04 -27.43397 -59.06646 35938 ft 419 kts 317°
2026-05-05 22:04 -27.40951 -59.08425 35938 ft 419 kts 317°
2026-05-05 22:05 -27.36087 -59.11950 35940 ft 418 kts 317°
2026-05-05 22:05 -27.31195 -59.15489 35936 ft 418 kts 317°
2026-05-05 22:06 -27.26305 -59.19024 35912 ft 418 kts 317°
2026-05-05 22:06 -27.21406 -59.22551 35905 ft 419 kts 317°
2026-05-05 22:07 -27.16497 -59.26084 35914 ft 419 kts 317°
2026-05-05 22:07 -27.11584 -59.29632 35910 ft 420 kts 317°
2026-05-05 22:08 -27.06662 -59.33179 35928 ft 421 kts 317°
2026-05-05 22:08 -27.01736 -59.36717 35917 ft 420 kts 317°
2026-05-05 22:09 -26.96808 -59.40255 35915 ft 420 kts 317°
2026-05-05 22:09 -26.91884 -59.43785 35916 ft 420 kts 317°
2026-05-05 22:10 -26.86957 -59.47314 35920 ft 420 kts 317°
2026-05-05 22:10 -26.82061 -59.50820 35917 ft 420 kts 317°
2026-05-05 22:11 -26.77131 -59.54350 35899 ft 421 kts 318°
2026-05-05 22:11 -26.72135 -59.57872 35905 ft 423 kts 319°
2026-05-05 22:12 -26.67136 -59.61265 35911 ft 424 kts 319°
2026-05-05 22:12 -26.62093 -59.64673 35924 ft 423 kts 319°
2026-05-05 22:13 -26.57071 -59.68100 35906 ft 423 kts 319°
2026-05-05 22:13 -26.52062 -59.71533 35911 ft 423 kts 319°
2026-05-05 22:14 -26.47039 -59.74963 35916 ft 423 kts 319°
2026-05-05 22:14 -26.42015 -59.78382 35918 ft 423 kts 319°
2026-05-05 22:15 -26.36986 -59.81801 35923 ft 423 kts 319°
2026-05-05 22:15 -26.31958 -59.85219 35905 ft 424 kts 320°
2026-05-05 22:16 -26.26921 -59.88633 35909 ft 424 kts 320°
2026-05-05 22:16 -26.21881 -59.92053 35918 ft 424 kts 320°
2026-05-05 22:17 -26.16884 -59.95444 35917 ft 424 kts 320°
2026-05-05 22:17 -26.11842 -59.98846 35899 ft 424 kts 320°
2026-05-05 22:18 -26.06805 -60.02253 35902 ft 424 kts 320°
2026-05-05 22:18 -26.01759 -60.05665 35904 ft 425 kts 320°
2026-05-05 22:19 -25.96709 -60.09076 35906 ft 425 kts 320°
2026-05-05 22:19 -25.91656 -60.12488 35911 ft 425 kts 320°
2026-05-05 22:20 -25.86595 -60.15902 35897 ft 426 kts 320°
2026-05-05 22:20 -25.81522 -60.19316 35906 ft 426 kts 320°
2026-05-05 22:21 -25.76480 -60.22698 35916 ft 426 kts 320°
2026-05-05 22:21 -25.71412 -60.26096 35919 ft 426 kts 320°
2026-05-05 22:22 -25.66342 -60.29490 35901 ft 425 kts 320°
2026-05-05 22:22 -25.61277 -60.32894 35897 ft 426 kts 320°
2026-05-05 22:23 -25.56209 -60.36296 35900 ft 426 kts 320°
2026-05-05 22:23 -25.51128 -60.39683 35900 ft 426 kts 320°
2026-05-05 22:24 -25.46049 -60.43067 35894 ft 426 kts 320°
2026-05-05 22:24 -25.40965 -60.46461 35878 ft 427 kts 321°
2026-05-05 22:25 -25.35881 -60.49852 35887 ft 427 kts 321°
2026-05-05 22:25 -25.31651 -60.52671 35891 ft 427 kts 321°
2026-05-05 22:26 -25.26566 -60.56058 35895 ft 427 kts 321°
2026-05-05 22:26 -25.21475 -60.59440 35897 ft 427 kts 321°
2026-05-05 22:27 -25.16389 -60.62821 35898 ft 427 kts 321°
2026-05-05 22:27 -25.11299 -60.66198 35897 ft 427 kts 321°
2026-05-05 22:28 -25.06204 -60.69569 35899 ft 427 kts 321°
2026-05-05 22:28 -25.01110 -60.72949 35902 ft 427 kts 321°
2026-05-05 22:29 -24.96010 -60.76321 35892 ft 427 kts 321°
2026-05-05 22:29 -24.90910 -60.79678 35891 ft 427 kts 321°
2026-05-05 22:30 -24.85827 -60.83073 35892 ft 427 kts 320°
2026-05-05 22:30 -24.80794 -60.86470 35896 ft 427 kts 320°
2026-05-05 22:31 -24.75714 -60.89863 35891 ft 427 kts 321°
2026-05-05 22:31 -24.70630 -60.93249 35880 ft 427 kts 321°
2026-05-05 22:32 -24.65542 -60.96628 35879 ft 428 kts 321°
2026-05-05 22:32 -24.60449 -61.00006 35879 ft 428 kts 321°
2026-05-05 22:33 -24.55354 -61.03393 35880 ft 428 kts 321°
2026-05-05 22:33 -24.50254 -61.06773 35901 ft 428 kts 321°
2026-05-05 22:34 -24.45156 -61.10148 35882 ft 428 kts 321°
2026-05-05 22:34 -24.40062 -61.13525 35883 ft 428 kts 321°
2026-05-05 22:35 -24.34961 -61.16895 35877 ft 428 kts 321°
2026-05-05 22:35 -24.29855 -61.20265 35883 ft 428 kts 321°
2026-05-05 22:36 -24.24764 -61.23640 35878 ft 428 kts 321°
2026-05-05 22:36 -24.19654 -61.27007 35860 ft 428 kts 322°
2026-05-05 22:37 -24.14578 -61.30352 35866 ft 429 kts 321°
2026-05-05 22:37 -24.09430 -61.33747 35867 ft 429 kts 322°
2026-05-05 22:38 -24.04331 -61.37063 35882 ft 429 kts 322°
2026-05-05 22:38 -23.99181 -61.40375 35882 ft 429 kts 322°
2026-05-05 22:39 -23.94038 -61.43681 35861 ft 429 kts 322°
2026-05-05 22:39 -23.88903 -61.47004 35864 ft 429 kts 322°
2026-05-05 22:40 -23.83770 -61.50337 35863 ft 429 kts 322°
2026-05-05 22:40 -23.78622 -61.53661 35865 ft 430 kts 322°
2026-05-05 22:41 -23.73478 -61.56981 35855 ft 430 kts 322°
2026-05-05 22:41 -23.68322 -61.60297 35850 ft 430 kts 322°
2026-05-05 22:42 -23.63165 -61.63619 35853 ft 431 kts 322°
2026-05-05 22:42 -23.58006 -61.66947 35856 ft 431 kts 322°
2026-05-05 22:43 -23.52841 -61.70263 35858 ft 431 kts 322°
2026-05-05 22:43 -23.47678 -61.73582 35847 ft 431 kts 323°
2026-05-05 22:44 -23.42508 -61.76903 35858 ft 432 kts 323°
2026-05-05 22:44 -23.37373 -61.80208 35853 ft 432 kts 323°
2026-05-05 22:45 -23.32193 -61.83526 35855 ft 432 kts 323°
2026-05-05 22:45 -23.27007 -61.86835 35858 ft 432 kts 323°
2026-05-05 22:46 -23.21816 -61.90147 35850 ft 432 kts 323°
2026-05-05 22:46 -23.16632 -61.93463 35856 ft 432 kts 323°
2026-05-05 22:47 -23.11450 -61.96775 35864 ft 432 kts 323°
2026-05-05 22:47 -23.06273 -62.00085 35867 ft 431 kts 323°
2026-05-05 22:48 -23.01089 -62.03376 35868 ft 431 kts 323°
2026-05-05 22:48 -22.95911 -62.06651 35852 ft 431 kts 324°
2026-05-05 22:49 -22.90736 -62.09953 35856 ft 431 kts 323°
2026-05-05 22:49 -22.85566 -62.13253 35856 ft 431 kts 324°
2026-05-05 22:50 -22.80387 -62.16542 35857 ft 431 kts 324°
2026-05-05 22:50 -22.75204 -62.19822 35852 ft 432 kts 324°
2026-05-05 22:51 -22.70025 -62.23110 35857 ft 431 kts 324°
2026-05-05 22:51 -22.64879 -62.26369 35863 ft 431 kts 324°
2026-05-05 22:52 -22.59703 -62.29642 35860 ft 431 kts 324°
2026-05-05 22:52 -22.54527 -62.32916 35860 ft 430 kts 324°
2026-05-05 22:53 -22.49354 -62.36181 35859 ft 430 kts 324°
2026-05-05 22:53 -22.44183 -62.39445 35843 ft 430 kts 324°
2026-05-05 22:54 -22.38991 -62.42681 35843 ft 432 kts 326°
2026-05-05 22:54 -22.33652 -62.45703 35844 ft 434 kts 328°
2026-05-05 22:55 -22.28276 -62.48588 35847 ft 434 kts 328°
2026-05-05 22:55 -22.22883 -62.51532 35848 ft 434 kts 327°
2026-05-05 22:56 -22.17482 -62.54534 35836 ft 434 kts 327°
2026-05-05 22:56 -22.12156 -62.57526 35837 ft 435 kts 327°
2026-05-05 22:57 -22.06780 -62.60511 35837 ft 435 kts 327°
2026-05-05 22:57 -22.01377 -62.63476 35840 ft 436 kts 327°
2026-05-05 22:58 -21.95985 -62.66459 35840 ft 435 kts 327°
2026-05-05 22:58 -21.90598 -62.69444 35831 ft 436 kts 327°
2026-05-05 22:59 -21.85206 -62.72432 35835 ft 436 kts 327°
2026-05-05 22:59 -21.79794 -62.75402 35837 ft 437 kts 327°
2026-05-05 23:00 -21.71676 -62.79866 35844 ft 437 kts 327°
2026-05-05 23:00 -21.66264 -62.82845 35834 ft 437 kts 328°
2026-05-05 23:01 -21.60853 -62.85826 35847 ft 437 kts 328°
2026-05-05 23:01 -21.55443 -62.88797 35853 ft 437 kts 328°
2026-05-05 23:02 -21.50036 -62.91759 35851 ft 436 kts 328°
2026-05-05 23:02 -21.44634 -62.94724 35851 ft 436 kts 328°
2026-05-05 23:03 -21.39263 -62.97668 35848 ft 436 kts 328°
2026-05-05 23:03 -21.33852 -63.00624 35850 ft 436 kts 328°
2026-05-05 23:04 -21.28465 -63.03622 35849 ft 436 kts 327°
2026-05-05 23:04 -21.23210 -63.06839 35851 ft 435 kts 325°
2026-05-05 23:05 -21.17994 -63.10120 35857 ft 435 kts 325°
2026-05-05 23:05 -21.12752 -63.13372 35848 ft 435 kts 326°
2026-05-05 23:06 -21.07499 -63.16585 35865 ft 435 kts 326°
2026-05-05 23:06 -21.02229 -63.19782 35868 ft 435 kts 326°
2026-05-05 23:07 -20.96977 -63.22984 35871 ft 435 kts 326°
2026-05-05 23:07 -20.91727 -63.26192 35878 ft 434 kts 326°
2026-05-05 23:08 -20.86513 -63.29372 35883 ft 434 kts 326°
2026-05-05 23:08 -20.81257 -63.32572 35881 ft 435 kts 326°
2026-05-05 23:09 -20.76003 -63.35773 35885 ft 435 kts 326°
2026-05-05 23:09 -20.70742 -63.38973 35899 ft 435 kts 327°
2026-05-05 23:10 -20.65469 -63.42169 35902 ft 436 kts 327°
2026-05-05 23:10 -20.60202 -63.45361 35901 ft 435 kts 327°
2026-05-05 23:11 -20.54940 -63.48559 35900 ft 435 kts 327°
2026-05-05 23:11 -20.49673 -63.51750 35913 ft 435 kts 327°
2026-05-05 23:12 -20.44405 -63.54937 35917 ft 435 kts 327°
2026-05-05 23:12 -20.39180 -63.58106 35914 ft 435 kts 327°
2026-05-05 23:13 -20.33911 -63.61294 35921 ft 435 kts 327°
2026-05-05 23:13 -20.28639 -63.64470 35926 ft 435 kts 327°
2026-05-05 23:14 -20.23365 -63.67646 35937 ft 436 kts 327°
2026-05-05 23:14 -20.18092 -63.70825 35945 ft 436 kts 327°
2026-05-05 23:15 -20.12816 -63.74012 35948 ft 436 kts 327°
2026-05-05 23:15 -20.07541 -63.77197 35929 ft 436 kts 327°
2026-05-05 23:16 -20.02272 -63.80374 35928 ft 435 kts 327°
2026-05-05 23:16 -19.97013 -63.83555 35934 ft 435 kts 327°
2026-05-05 23:17 -19.91754 -63.86749 35946 ft 435 kts 327°
2026-05-05 23:17 -19.86505 -63.89938 35945 ft 434 kts 327°
2026-05-05 23:18 -19.82147 -63.92599 35947 ft 434 kts 327°
2026-05-05 23:18 -19.76909 -63.95791 35944 ft 434 kts 327°
2026-05-05 23:19 -19.71662 -63.98974 35957 ft 434 kts 327°
2026-05-05 23:19 -19.66419 -64.02168 35960 ft 434 kts 327°
2026-05-05 23:20 -19.61181 -64.05363 35967 ft 434 kts 327°
2026-05-05 23:20 -19.55954 -64.08555 35970 ft 433 kts 327°
2026-05-05 23:21 -19.50732 -64.11739 35987 ft 433 kts 327°
2026-05-05 23:21 -19.45511 -64.14918 35978 ft 432 kts 327°
2026-05-05 23:22 -19.40297 -64.18093 35985 ft 432 kts 327°
2026-05-05 23:22 -19.35085 -64.21262 35985 ft 432 kts 327°
2026-05-05 23:23 -19.29861 -64.24431 36006 ft 433 kts 327°
2026-05-05 23:23 -19.24674 -64.27576 36004 ft 432 kts 327°
2026-05-05 23:24 -19.19419 -64.30762 35989 ft 433 kts 327°
2026-05-05 23:24 -19.14201 -64.33927 35988 ft 433 kts 327°
2026-05-05 23:25 -19.09012 -64.37069 36015 ft 433 kts 327°
2026-05-05 23:25 -19.03787 -64.40227 36020 ft 432 kts 327°
2026-05-05 23:26 -18.98575 -64.43386 36022 ft 432 kts 327°
2026-05-05 23:26 -18.93359 -64.46545 36012 ft 432 kts 327°
2026-05-05 23:27 -18.88142 -64.49696 36011 ft 432 kts 327°
2026-05-05 23:27 -18.82936 -64.52863 36003 ft 432 kts 327°
2026-05-05 23:28 -18.77735 -64.56032 36005 ft 432 kts 327°
2026-05-05 23:28 -18.72529 -64.59190 35997 ft 431 kts 327°
2026-05-05 23:29 -18.67323 -64.62338 36004 ft 432 kts 327°
2026-05-05 23:29 -18.62112 -64.65488 36003 ft 432 kts 327°
2026-05-05 23:30 -18.56904 -64.68650 36001 ft 432 kts 327°
2026-05-05 23:30 -18.51696 -64.71835 36010 ft 433 kts 327°
2026-05-05 23:31 -18.46529 -64.75002 36013 ft 433 kts 327°
2026-05-05 23:31 -18.41309 -64.78182 36025 ft 433 kts 327°
2026-05-05 23:32 -18.36090 -64.81358 36025 ft 433 kts 327°
2026-05-05 23:32 -18.30872 -64.84541 36021 ft 433 kts 327°
2026-05-05 23:33 -18.25652 -64.87720 36046 ft 434 kts 327°
2026-05-05 23:33 -18.20437 -64.90894 36046 ft 433 kts 327°
2026-05-05 23:34 -18.15213 -64.94068 36069 ft 433 kts 327°
2026-05-05 23:34 -18.09997 -64.97239 36072 ft 433 kts 327°
2026-05-05 23:35 -18.04775 -65.00411 36090 ft 433 kts 328°
2026-05-05 23:35 -17.99554 -65.03574 36091 ft 433 kts 328°
2026-05-05 23:36 -17.94330 -65.06734 36121 ft 433 kts 328°
2026-05-05 23:36 -17.89113 -65.09895 36122 ft 433 kts 328°
2026-05-05 23:37 -17.83891 -65.13051 36121 ft 433 kts 328°
2026-05-05 23:37 -17.78672 -65.16215 36155 ft 433 kts 328°
2026-05-05 23:38 -17.73450 -65.19376 36148 ft 433 kts 328°
2026-05-05 23:38 -17.68225 -65.22529 36167 ft 433 kts 328°
2026-05-05 23:39 -17.63037 -65.25665 36183 ft 433 kts 328°
2026-05-05 23:39 -17.57821 -65.28844 36192 ft 434 kts 328°
2026-05-05 23:40 -17.52604 -65.32019 36196 ft 434 kts 328°
2026-05-05 23:40 -17.47380 -65.35184 36164 ft 433 kts 328°
2026-05-05 23:41 -17.42164 -65.38350 36202 ft 433 kts 328°
2026-05-05 23:41 -17.36958 -65.41520 36159 ft 433 kts 328°
2026-05-05 23:42 -17.31751 -65.44686 36160 ft 433 kts 328°
2026-05-05 23:42 -17.26548 -65.47847 36159 ft 433 kts 328°
2026-05-05 23:43 -17.21346 -65.51003 36152 ft 432 kts 328°
2026-05-05 23:43 -17.16140 -65.54166 36154 ft 432 kts 328°
2026-05-05 23:44 -17.10938 -65.57319 36109 ft 432 kts 328°
2026-05-05 23:44 -17.05738 -65.60469 36110 ft 432 kts 328°
2026-05-05 23:45 -17.00541 -65.63628 36160 ft 432 kts 328°
2026-05-05 23:45 -16.95355 -65.66788 36159 ft 432 kts 328°
2026-05-05 23:46 -16.90173 -65.69946 36134 ft 431 kts 328°
2026-05-05 23:46 -16.84982 -65.73094 36096 ft 431 kts 328°
2026-05-05 23:47 -16.79606 -65.75871 36149 ft 432 kts 334°
2026-05-05 23:47 -16.74127 -65.78459 36109 ft 432 kts 334°
2026-05-05 23:48 -16.68654 -65.81056 36106 ft 432 kts 333°
2026-05-05 23:48 -16.63186 -65.83656 36072 ft 432 kts 334°
2026-05-05 23:49 -16.57743 -65.86227 36069 ft 432 kts 334°
2026-05-05 23:49 -16.52228 -65.88823 36069 ft 432 kts 334°
2026-05-05 23:50 -16.46745 -65.91412 36069 ft 432 kts 334°
2026-05-05 23:50 -16.41304 -65.93987 36035 ft 433 kts 334°
2026-05-05 23:51 -16.35820 -65.96570 36045 ft 432 kts 334°
2026-05-05 23:51 -16.30346 -65.99155 36040 ft 432 kts 334°
2026-05-05 23:52 -16.24877 -66.01737 36031 ft 432 kts 334°
2026-05-05 23:52 -16.19395 -66.04314 36030 ft 432 kts 334°
2026-05-05 23:53 -16.13918 -66.06889 36002 ft 432 kts 334°
2026-05-05 23:53 -16.08439 -66.09466 36004 ft 432 kts 334°
2026-05-05 23:54 -16.02961 -66.12042 35987 ft 432 kts 334°
2026-05-05 23:54 -15.97480 -66.14613 36001 ft 432 kts 335°
2026-05-05 23:55 -15.91996 -66.17184 35982 ft 432 kts 334°
2026-05-05 23:55 -15.86517 -66.19761 35975 ft 433 kts 334°
2026-05-05 23:56 -15.81031 -66.22332 35983 ft 433 kts 335°
2026-05-05 23:56 -15.75579 -66.24879 35971 ft 433 kts 334°
2026-05-05 23:57 -15.70090 -66.27455 35985 ft 432 kts 334°
2026-05-05 23:57 -15.64610 -66.30029 35959 ft 433 kts 335°
2026-05-05 23:58 -15.59124 -66.32597 35968 ft 433 kts 335°
2026-05-05 23:58 -15.53631 -66.35155 35943 ft 433 kts 335°
2026-05-05 23:59 -15.48144 -66.37734 35947 ft 433 kts 334°
2026-05-05 23:59 -15.42672 -66.40333 35943 ft 433 kts 334°
2026-05-06 00:00 -15.37197 -66.42929 35936 ft 433 kts 334°
2026-05-06 00:00 -15.31712 -66.45523 35942 ft 433 kts 334°
2026-05-06 00:01 -15.26221 -66.48116 35925 ft 434 kts 334°
2026-05-06 00:01 -15.20721 -66.50713 35925 ft 434 kts 335°
2026-05-06 00:02 -15.15220 -66.53304 35914 ft 435 kts 335°
2026-05-06 00:02 -15.09716 -66.55897 35924 ft 435 kts 335°
2026-05-06 00:03 -15.04205 -66.58488 35909 ft 435 kts 334°
2026-05-06 00:03 -14.98734 -66.61062 35907 ft 434 kts 334°
2026-05-06 00:04 -14.93237 -66.63646 35916 ft 434 kts 334°
2026-05-06 00:04 -14.87736 -66.66234 35918 ft 434 kts 334°
2026-05-06 00:05 -14.79493 -66.70117 35920 ft 434 kts 334°
2026-05-06 00:06 -14.73996 -66.72699 35909 ft 434 kts 335°
2026-05-06 00:06 -14.68487 -66.75276 35903 ft 434 kts 335°
2026-05-06 00:07 -14.62982 -66.77859 35914 ft 435 kts 335°
2026-05-06 00:07 -14.57472 -66.80446 35915 ft 435 kts 335°
2026-05-06 00:08 -14.51958 -66.83032 35924 ft 435 kts 335°
2026-05-06 00:08 -14.47376 -66.85177 35921 ft 435 kts 335°
2026-05-06 00:09 -14.41900 -66.87857 35912 ft 436 kts 333°
2026-05-06 00:09 -14.36460 -66.90614 35911 ft 436 kts 333°
2026-05-06 00:10 -14.30109 -66.93805 35912 ft 437 kts 333°
2026-05-06 00:10 -14.25519 -66.96090 35921 ft 437 kts 334°
2026-05-06 00:11 -14.20036 -66.98812 35924 ft 438 kts 334°
2026-05-06 00:11 -14.14543 -67.01538 35922 ft 438 kts 334°
2026-05-06 00:12 -14.09059 -67.04262 35928 ft 438 kts 334°
2026-05-06 00:12 -14.03606 -67.06969 35927 ft 438 kts 334°
2026-05-06 00:13 -13.98116 -67.09693 35927 ft 438 kts 333°
2026-05-06 00:13 -13.92628 -67.12423 35929 ft 438 kts 334°
2026-05-06 00:14 -13.87138 -67.15146 35928 ft 438 kts 334°
2026-05-06 00:14 -13.81648 -67.17865 35931 ft 438 kts 334°
2026-05-06 00:15 -13.76156 -67.20586 35926 ft 438 kts 334°
2026-05-06 00:15 -13.70654 -67.23304 35930 ft 438 kts 334°
2026-05-06 00:16 -13.65157 -67.26020 35932 ft 438 kts 334°
2026-05-06 00:16 -13.59658 -67.28734 35938 ft 438 kts 334°
2026-05-06 00:17 -13.54173 -67.31454 35937 ft 438 kts 334°
2026-05-06 00:17 -13.48683 -67.34167 35939 ft 438 kts 334°
2026-05-06 00:18 -13.43196 -67.36876 35935 ft 438 kts 334°
2026-05-06 00:18 -13.37709 -67.39586 35938 ft 438 kts 334°
2026-05-06 00:19 -13.32219 -67.42290 35937 ft 438 kts 334°
2026-05-06 00:19 -13.26730 -67.44993 35937 ft 438 kts 334°
2026-05-06 00:20 -13.21279 -67.47681 35941 ft 438 kts 334°
2026-05-06 00:20 -13.15785 -67.50383 35937 ft 438 kts 334°
2026-05-06 00:21 -13.10296 -67.53086 35940 ft 437 kts 334°
2026-05-06 00:21 -13.04816 -67.55789 35945 ft 437 kts 334°
2026-05-06 00:22 -12.99330 -67.58480 35949 ft 437 kts 334°
2026-05-06 00:22 -12.93857 -67.61178 35949 ft 437 kts 334°
2026-05-06 00:23 -12.88382 -67.63877 35948 ft 437 kts 334°
2026-05-06 00:23 -12.82902 -67.66567 35950 ft 437 kts 334°
2026-05-06 00:24 -12.77420 -67.69248 35951 ft 437 kts 334°
2026-05-06 00:24 -12.71938 -67.71928 35949 ft 437 kts 334°
2026-05-06 00:25 -12.66458 -67.74613 35947 ft 437 kts 334°
2026-05-06 00:25 -12.60984 -67.77302 35950 ft 437 kts 334°
2026-05-06 00:26 -12.55507 -67.79988 35952 ft 437 kts 334°
2026-05-06 00:26 -12.50024 -67.82670 35956 ft 436 kts 334°
2026-05-06 00:27 -12.44546 -67.85350 35957 ft 436 kts 334°
2026-05-06 00:27 -12.39070 -67.88032 35956 ft 436 kts 334°
2026-05-06 00:28 -12.33626 -67.90693 35954 ft 436 kts 334°
2026-05-06 00:28 -12.28149 -67.93371 35954 ft 436 kts 334°
2026-05-06 00:29 -12.22671 -67.96042 35957 ft 436 kts 334°
2026-05-06 00:29 -12.17189 -67.98720 35955 ft 437 kts 334°
2026-05-06 00:30 -12.11716 -68.01410 35956 ft 437 kts 333°
2026-05-06 00:30 -12.06349 -68.04337 35968 ft 438 kts 330°
2026-05-06 00:30 -12.03690 -68.05876 36123 ft 441 kts 330°
2026-05-06 00:31 -12.01025 -68.07428 36371 ft 440 kts 330°
2026-05-06 00:31 -11.98362 -68.08965 36651 ft 439 kts 330°
2026-05-06 00:31 -11.95697 -68.10483 36946 ft 438 kts 330°
2026-05-06 00:31 -11.93039 -68.11981 37255 ft 436 kts 330°
2026-05-06 00:32 -11.90386 -68.13467 37547 ft 434 kts 330°
2026-05-06 00:32 -11.87747 -68.14938 37840 ft 432 kts 330°
2026-05-06 00:32 -11.85101 -68.16414 37955 ft 433 kts 330°
2026-05-06 00:33 -11.79825 -68.19364 37968 ft 432 kts 330°
2026-05-06 00:33 -11.74568 -68.22310 37967 ft 430 kts 330°
2026-05-06 00:34 -11.69327 -68.25251 37964 ft 430 kts 330°
2026-05-06 00:34 -11.64088 -68.28185 37964 ft 430 kts 330°
2026-05-06 00:35 -11.58846 -68.31117 37969 ft 430 kts 330°
2026-05-06 00:35 -11.53604 -68.34049 37968 ft 430 kts 330°
2026-05-06 00:36 -11.48386 -68.36963 37969 ft 431 kts 330°
2026-05-06 00:36 -11.43122 -68.39901 37969 ft 432 kts 330°
2026-05-06 00:37 -11.37859 -68.42847 37970 ft 432 kts 330°
2026-05-06 00:37 -11.32591 -68.45793 37975 ft 432 kts 330°
2026-05-06 00:38 -11.27320 -68.48742 37975 ft 432 kts 330°
2026-05-06 00:38 -11.22053 -68.51685 37975 ft 432 kts 331°
2026-05-06 00:39 -11.16775 -68.54626 37959 ft 432 kts 331°
2026-05-06 00:39 -11.11498 -68.57565 37951 ft 432 kts 331°
2026-05-06 00:40 -11.06224 -68.60500 37943 ft 432 kts 331°
2026-05-06 00:40 -11.00946 -68.63438 37937 ft 432 kts 331°
2026-05-06 00:41 -10.95677 -68.66374 37931 ft 432 kts 331°
2026-05-06 00:41 -10.90403 -68.69316 37934 ft 432 kts 331°
2026-05-06 00:42 -10.85138 -68.72250 37943 ft 432 kts 331°
2026-05-06 00:42 -10.79863 -68.75184 37952 ft 432 kts 331°
2026-05-06 00:43 -10.74587 -68.78111 37965 ft 432 kts 331°
2026-05-06 00:43 -10.69341 -68.81025 37978 ft 432 kts 331°
2026-05-06 00:44 -10.64064 -68.83958 37980 ft 433 kts 331°
2026-05-06 00:44 -10.58780 -68.86893 37984 ft 432 kts 331°
2026-05-06 00:45 -10.53501 -68.89825 37982 ft 432 kts 332°
2026-05-06 00:45 -10.48213 -68.92756 37980 ft 433 kts 332°
2026-05-06 00:46 -10.42927 -68.95689 37983 ft 433 kts 332°
2026-05-06 00:46 -10.37636 -68.98623 37984 ft 433 kts 332°
2026-05-06 00:47 -10.32339 -69.01555 37982 ft 433 kts 332°
2026-05-06 00:47 -10.27044 -69.04494 37986 ft 434 kts 332°
2026-05-06 00:48 -10.21747 -69.07430 37993 ft 434 kts 332°
2026-05-06 00:48 -10.16441 -69.10363 37991 ft 435 kts 332°
2026-05-06 00:49 -10.11126 -69.13304 37987 ft 435 kts 332°
2026-05-06 00:49 -10.05811 -69.16244 37987 ft 435 kts 332°
2026-05-06 00:50 -10.00492 -69.19185 37985 ft 435 kts 332°
2026-05-06 00:50 -9.95175 -69.22129 37985 ft 435 kts 332°
2026-05-06 00:51 -9.89849 -69.25070 37999 ft 435 kts 332°
2026-05-06 00:51 -9.84529 -69.28007 37991 ft 436 kts 332°
2026-05-06 00:52 -9.79234 -69.30933 37983 ft 436 kts 332°
2026-05-06 00:52 -9.73900 -69.33875 37984 ft 437 kts 332°
2026-05-06 00:53 -9.68562 -69.36822 37988 ft 437 kts 332°
2026-05-06 00:53 -9.63226 -69.39758 37989 ft 437 kts 332°
2026-05-06 00:54 -9.57883 -69.42697 37992 ft 437 kts 332°
2026-05-06 00:54 -9.52542 -69.45642 37979 ft 437 kts 332°
2026-05-06 00:55 -9.47193 -69.48594 37973 ft 438 kts 332°
2026-05-06 00:55 -9.41841 -69.51536 37975 ft 438 kts 332°
2026-05-06 00:56 -9.36475 -69.54486 37980 ft 438 kts 333°
2026-05-06 00:56 -9.31119 -69.57431 37988 ft 438 kts 332°
2026-05-06 00:57 -9.25770 -69.60380 37993 ft 438 kts 332°
2026-05-06 00:57 -9.20418 -69.63323 37987 ft 438 kts 333°
2026-05-06 00:58 -9.15071 -69.66268 37984 ft 438 kts 333°
2026-05-06 00:58 -9.09714 -69.69215 37983 ft 438 kts 332°
2026-05-06 00:59 -9.05267 -69.71665 37984 ft 438 kts 333°
2026-05-06 00:59 -8.99906 -69.74602 37986 ft 438 kts 333°
2026-05-06 01:00 -8.94535 -69.77535 37987 ft 438 kts 333°
2026-05-06 01:00 -8.89174 -69.80470 37987 ft 438 kts 333°
2026-05-06 01:01 -8.83812 -69.83420 37984 ft 439 kts 333°
2026-05-06 01:01 -8.78448 -69.86374 37986 ft 439 kts 333°
2026-05-06 01:02 -8.73107 -69.89292 37992 ft 439 kts 333°
2026-05-06 01:02 -8.67737 -69.92238 37995 ft 439 kts 333°
2026-05-06 01:03 -8.62372 -69.95190 37994 ft 439 kts 333°
2026-05-06 01:03 -8.57001 -69.98135 37994 ft 439 kts 333°
2026-05-06 01:04 -8.51630 -70.01074 37993 ft 439 kts 333°
2026-05-06 01:04 -8.46244 -70.04015 37991 ft 440 kts 333°
2026-05-06 01:05 -8.40863 -70.06958 37992 ft 440 kts 333°
2026-05-06 01:05 -8.35476 -70.09906 37994 ft 440 kts 333°
2026-05-06 01:06 -8.30089 -70.12863 37995 ft 441 kts 333°
2026-05-06 01:06 -8.24703 -70.15806 37996 ft 440 kts 333°
2026-05-06 01:07 -8.19309 -70.18741 37994 ft 441 kts 333°
2026-05-06 01:07 -8.13912 -70.21698 37983 ft 442 kts 333°
2026-05-06 01:08 -8.08507 -70.24661 37983 ft 442 kts 333°
2026-05-06 01:08 -8.03088 -70.27613 37985 ft 443 kts 333°
2026-05-06 01:09 -7.97663 -70.30573 37989 ft 444 kts 333°
2026-05-06 01:09 -7.92230 -70.33539 37995 ft 444 kts 333°
2026-05-06 01:10 -7.86829 -70.36483 38000 ft 444 kts 333°
2026-05-06 01:10 -7.81391 -70.39442 38008 ft 444 kts 333°
2026-05-06 01:11 -7.75948 -70.42417 37999 ft 446 kts 333°
2026-05-06 01:11 -7.70426 -70.45435 37993 ft 457 kts 333°
2026-05-06 01:12 -7.64808 -70.48488 37997 ft 461 kts 333°
2026-05-06 01:12 -7.59151 -70.51566 37994 ft 462 kts 333°
2026-05-06 01:13 -7.53499 -70.54650 37991 ft 462 kts 333°
2026-05-06 01:13 -7.47830 -70.57736 37997 ft 464 kts 333°
2026-05-06 01:14 -7.39336 -70.62349 38005 ft 465 kts 333°
2026-05-06 01:14 -7.33643 -70.65443 38010 ft 465 kts 333°
2026-05-06 01:15 -7.27950 -70.68546 38013 ft 465 kts 333°
2026-05-06 01:15 -7.22251 -70.71645 38016 ft 465 kts 333°
2026-05-06 01:16 -7.16562 -70.74730 38018 ft 465 kts 333°
2026-05-06 01:16 -7.10850 -70.77829 38012 ft 466 kts 333°
2026-05-06 01:17 -7.05142 -70.80939 38011 ft 467 kts 333°
2026-05-06 01:17 -6.99422 -70.84051 38013 ft 467 kts 333°
2026-05-06 01:18 -6.93701 -70.87152 38014 ft 467 kts 333°
2026-05-06 01:18 -6.87970 -70.90257 38009 ft 468 kts 333°
2026-05-06 01:19 -6.82247 -70.93360 38014 ft 468 kts 333°
2026-05-06 01:19 -6.76518 -70.96467 38016 ft 468 kts 334°
2026-05-06 01:20 -6.70795 -70.99571 38014 ft 467 kts 334°
2026-05-06 01:20 -6.65069 -71.02679 38016 ft 467 kts 334°
2026-05-06 01:21 -6.59349 -71.05776 38016 ft 467 kts 334°
2026-05-06 01:21 -6.53627 -71.08873 38015 ft 467 kts 334°
2026-05-06 01:22 -6.47909 -71.11969 38016 ft 467 kts 334°
2026-05-06 01:22 -6.42194 -71.15066 38013 ft 467 kts 334°
2026-05-06 01:23 -6.36468 -71.18175 38012 ft 467 kts 334°
2026-05-06 01:23 -6.30749 -71.21273 38013 ft 467 kts 334°
2026-05-06 01:24 -6.25029 -71.24363 38016 ft 467 kts 334°
2026-05-06 01:24 -6.19298 -71.27460 38014 ft 467 kts 334°
2026-05-06 01:25 -6.13576 -71.30554 38011 ft 467 kts 334°
2026-05-06 01:25 -6.07887 -71.33633 38012 ft 467 kts 334°
2026-05-06 01:26 -6.02157 -71.36729 38006 ft 468 kts 334°
2026-05-06 01:26 -5.96426 -71.39833 38007 ft 468 kts 334°
2026-05-06 01:27 -5.90699 -71.42935 38009 ft 468 kts 334°
2026-05-06 01:27 -5.84964 -71.46028 38008 ft 468 kts 334°
2026-05-06 01:28 -5.79233 -71.49122 38004 ft 468 kts 334°
2026-05-06 01:28 -5.73502 -71.52222 37997 ft 468 kts 334°
2026-05-06 01:29 -5.67764 -71.55317 37998 ft 469 kts 334°
2026-05-06 01:29 -5.62007 -71.58430 38001 ft 469 kts 334°
2026-05-06 01:30 -5.56252 -71.61533 38008 ft 469 kts 334°
2026-05-06 01:30 -5.50504 -71.64633 38009 ft 469 kts 334°
2026-05-06 01:31 -5.44759 -71.67733 38004 ft 469 kts 334°
2026-05-06 01:31 -5.39011 -71.70829 38004 ft 469 kts 334°
2026-05-06 01:32 -5.33261 -71.73926 38004 ft 469 kts 334°
2026-05-06 01:32 -5.27513 -71.77035 38004 ft 469 kts 334°
2026-05-06 01:33 -5.21770 -71.80132 38008 ft 469 kts 334°
2026-05-06 01:33 -5.16009 -71.83225 38008 ft 469 kts 334°
2026-05-06 01:34 -5.10257 -71.86322 38004 ft 469 kts 334°
2026-05-06 01:34 -5.04508 -71.89422 38005 ft 469 kts 334°
2026-05-06 01:35 -4.98752 -71.92528 38006 ft 469 kts 334°
2026-05-06 01:35 -4.92999 -71.95625 38006 ft 470 kts 334°
2026-05-06 01:36 -4.87245 -71.98720 37999 ft 470 kts 334°
2026-05-06 01:36 -4.81482 -72.01816 37998 ft 470 kts 334°
2026-05-06 01:37 -4.75726 -72.04905 37996 ft 470 kts 334°
2026-05-06 01:37 -4.70000 -72.07991 38001 ft 470 kts 334°
2026-05-06 01:38 -4.64200 -72.11116 38001 ft 470 kts 334°
2026-05-06 01:38 -4.58426 -72.14217 37997 ft 470 kts 334°
2026-05-06 01:39 -4.52663 -72.17307 37994 ft 470 kts 334°
2026-05-06 01:39 -4.46933 -72.20382 37992 ft 470 kts 334°
2026-05-06 01:40 -4.41174 -72.23474 37991 ft 470 kts 334°
2026-05-06 01:40 -4.35370 -72.26584 37993 ft 470 kts 334°
2026-05-06 01:41 -4.29642 -72.29654 37994 ft 470 kts 334°
2026-05-06 01:41 -4.23879 -72.32741 37994 ft 470 kts 333°
2026-05-06 01:42 -4.18122 -72.35827 37991 ft 469 kts 334°
2026-05-06 01:42 -4.12356 -72.38909 37990 ft 469 kts 334°
2026-05-06 01:43 -4.06603 -72.41990 37989 ft 469 kts 334°
2026-05-06 01:43 -4.00840 -72.45078 37989 ft 470 kts 334°
2026-05-06 01:44 -3.95079 -72.48166 37988 ft 470 kts 334°
2026-05-06 01:44 -3.89313 -72.51255 37989 ft 470 kts 334°
2026-05-06 01:45 -3.84480 -72.53844 37995 ft 470 kts 334°
2026-05-06 01:45 -3.77780 -72.57422 37993 ft 470 kts 334°
2026-05-06 01:46 -3.72992 -72.59982 37987 ft 469 kts 334°
2026-05-06 01:46 -3.67237 -72.63061 37993 ft 469 kts 334°
2026-05-06 01:47 -3.61499 -72.66136 37994 ft 467 kts 333°
2026-05-06 01:47 -3.55767 -72.69209 37994 ft 467 kts 333°
2026-05-06 01:48 -3.50046 -72.72263 37991 ft 467 kts 333°
2026-05-06 01:48 -3.44314 -72.75322 37993 ft 467 kts 333°
2026-05-06 01:49 -3.38588 -72.78388 37998 ft 467 kts 333°
2026-05-06 01:49 -3.32870 -72.81455 37992 ft 466 kts 333°
2026-05-06 01:50 -3.27144 -72.84519 37988 ft 466 kts 334°
2026-05-06 01:50 -3.21418 -72.87577 37986 ft 467 kts 334°
2026-05-06 01:51 -3.15371 -72.90798 37990 ft 467 kts 334°
2026-05-06 01:51 -3.09630 -72.93860 37992 ft 468 kts 334°
2026-05-06 01:52 -3.03901 -72.96934 37992 ft 468 kts 333°
2026-05-06 01:52 -2.98164 -73.00000 37996 ft 467 kts 333°
2026-05-06 01:53 -2.92273 -73.02697 37993 ft 465 kts 342°
2026-05-06 01:53 -2.86130 -73.04751 37997 ft 465 kts 342°
2026-05-06 01:54 -2.79998 -73.06802 38001 ft 465 kts 342°
2026-05-06 01:54 -2.73856 -73.08860 38006 ft 465 kts 342°